Stations météo

réclame
Mon MeteoGroup
Bordeaux/Merignac, France (7510): Température de l'air & dewpoint: 17.01.2019 08:00:00 - 23.01.2019 08:00:00 (CET)Bordeaux/Merignac, France (7510): Température de l'air 5cm: 17.01.2019 08:00:00 - 23.01.2019 08:00:00 (CET)Bordeaux/Merignac, France (7510): Température de l'air -20cm & Température de l'air -100cm: 17.01.2019 08:00:00 - 23.01.2019 08:00:00 (CET)Bordeaux/Merignac, France (7510): Vitesse du vent & gusts: 17.01.2019 08:00:00 - 23.01.2019 08:00:00 (CET)Bordeaux/Merignac, France (7510): Direction du vent: 17.01.2019 08:00:00 - 23.01.2019 08:00:00 (CET)Bordeaux/Merignac, France (7510): reduced air pressure: 17.01.2019 08:00:00 - 23.01.2019 08:00:00 (CET)Bordeaux/Merignac, France (7510): visibility: 17.01.2019 08:00:00 - 23.01.2019 08:00:00 (CET)Bordeaux/Merignac, France (7510): Quantités de précipitations: 17.01.2019 08:00:00 - 23.01.2019 08:00:00 (CET)
Date & Time tt [°C] td [°C] tt 5cm [°C] tt -20cm [°C] tt -100cm [°C] ff [km/h] ff [knt] fx [km/h] fx [knt] dd ppp [hPa] vv [km] rr [mm]
23.01.2019 08:00:00 6,7 6,3 6,0 7,5 9,8 11 6 15 8 W 999,4 20 0,0
23.01.2019 07:00:00 6,6 6,2 5,9 7,5 9,8 6 4 8 4 WNW 998,9 31 0,6
23.01.2019 06:00:00 6,7 6,1 6,1 7,5 9,8 0 0 6 4 N 998,6 4,5 1,6
23.01.2019 05:00:00 6,9 6,3 6,2 7,5 9,8 7 4 16 9 WSW 999,6 8 0,8
23.01.2019 04:00:00 6,9 6,2 5,8 7,5 9,8 13 7 17 9 WSW 1000,8 20 0,0
23.01.2019 03:00:00 6,5 5,9 5,5 7,5 9,8 9 5 18 10 WSW 1002,1 19 0,0
23.01.2019 02:00:00 6,0 5,4 5,0 7,6 9,8 10 5 13 7 SW 1002,7 17 0,0
23.01.2019 01:00:00 6,0 5,4 4,9 7,6 9,8 11 6 22 12 W 1004,1 46 0,6
23.01.2019 00:00:00 5,7 5,4 4,6 7,6 9,8 0 0 11 6 N 1004,8 7 0,2
22.01.2019 23:00:00 5,8 5,4 5,2 7,7 9,8 8 4 15 8 SSW 1005,4 12 1,6
22.01.2019 22:00:00 5,9 5,5 5,5 7,7 9,8 10 5 14 8 S 1006,0 9 1,8
22.01.2019 21:00:00 6,1 5,4 5,5 7,7 9,8 4 2 10 6 SE 1007,3 8 1,0
22.01.2019 20:00:00 6,5 4,8 5,4 7,7 9,8 8 4 29 16 W 1008,0 55 0,0
22.01.2019 19:00:00 6,2 4,8 5,1 7,7 9,9 6 3 28 15 SW 1008,5 18 0,4
22.01.2019 18:00:00 6,8 4,6 5,9 7,8 9,9 9 5 26 14 WSW 1008,9 28 0,0
22.01.2019 17:00:00 8,2 4,2 7,6 7,6 9,9 10 5 31 17 W 1009,1 16 0,0
22.01.2019 16:00:00 8,8 3,8 8,9 7,5 9,9 16 9 34 18 WNW 1009,2 46 0,0
22.01.2019 15:00:00 8,9 4,1 8,5 7,2 9,9 20 11 46 25 NW 1009,5 21 0,0
22.01.2019 14:00:00 7,9 6,2 6,7 7,1 9,9 13 7 21 11 NW 1009,7 20 0,0
22.01.2019 13:00:00 6,3 5,3 5,9 7,0 9,9 10 6 15 8 W 1010,4 49 0,4
22.01.2019 12:00:00 5,7 5,1 4,3 6,9 9,9 11 6 22 12 SSW 1010,5 20 0,8
22.01.2019 11:00:00 4,7 4,1 3,8 6,9 9,9 20 11 36 20 WSW 1011,8 3,4 1,4
22.01.2019 10:00:00 3,9 3,2 2,8 6,9 9,9 18 10 29 16 S 1012,0 8 0,4
22.01.2019 09:00:00 3,4 1,8 2,8 6,9 9,9 18 10 27 15 S 1013,5 10 0,0
22.01.2019 08:00:00 3,3 1,0 2,6 7,0 9,9 17 9 28 15 S 1014,4 27 0,0
22.01.2019 07:00:00 2,7 0,4 1,6 7,0 9,9 15 8 22 12 S 1015,6 26 0,0
22.01.2019 06:00:00 1,8 -0,3 0,8 7,1 9,9 15 8 22 12 S 1016,5 31 0,0
22.01.2019 05:00:00 1,3 -0,8 0,5 7,2 9,9 13 7 20 11 S 1017,8 29 0,0
22.01.2019 04:00:00 0,9 -1,2 -0,3 7,4 9,9 11 6 19 11 S 1019,1 41 0,0
22.01.2019 03:00:00 0,4 -1,4 -0,5 7,5 9,9 9 5 14 7 S 1020,3 31 0,0
22.01.2019 02:00:00 0,9 -1,0 -1,0 7,7 9,9 0 0 10 5 N 1021,1 19 0,0
22.01.2019 01:00:00 1,5 -0,9 -0,1 7,8 9,9 8 4 9 5 SSE 1022,1 20 0,0
22.01.2019 00:00:00 2,7 -0,6 1,0 7,9 9,9 4 2 8 4 S 1022,8 30 0,0
21.01.2019 23:00:00 3,6 -0,8 2,9 8,0 9,9 5 3 10 5 SSE 1022,6 56 0,0
21.01.2019 22:00:00 3,9 -0,3 2,7 8,1 9,9 8 4 12 6 W 1023,7 47 0,0
21.01.2019 21:00:00 3,5 0,2 2,2 8,2 9,9 6 3 14 8 W 1023,8 36 0,0
21.01.2019 20:00:00 4,2 0,7 3,8 8,2 9,9 5 3 12 7 WNW 1023,6 46 0,0
21.01.2019 19:00:00 4,6 0,7 4,0 8,3 9,9 5 3 10 6 WNW 1023,5 60 0,0
21.01.2019 18:00:00 4,9 0,7 4,6 8,3 9,9 6 4 12 7 NW 1023,4 55 0,0
21.01.2019 17:00:00 5,4 0,8 5,6 8,3 9,9 10 5 17 9 NW 1023,3 60 0,0
21.01.2019 16:00:00 5,6 0,6 6,2 8,3 9,9 11 6 19 10 NNW 1023,4 58 0,0
21.01.2019 15:00:00 5,5 0,7 6,4 8,2 9,9 11 6 19 10 NNW 1023,6 59 0,0
21.01.2019 14:00:00 5,5 -1,0 6,3 8,1 9,9 13 7 21 11 N 1024,0 57 0,0
21.01.2019 13:00:00 5,4 -0,9 6,1 8,1 9,9 14 7 21 11 NNW 1024,1 60 0,0
21.01.2019 12:00:00 4,9 1,6 4,7 8,1 9,9 3 2 15 8 N 1024,4 53 0,0
21.01.2019 11:00:00 4,3 1,7 4,4 8,1 9,9 11 6 19 10 N 1024,5 38 0,0
21.01.2019 10:00:00 4,1 2,0 4,1 8,2 9,9 9 5 17 9 NNW 1023,7 20 0,0
21.01.2019 09:00:00 4,1 2,1 4,0 8,3 9,9 10 6 21 11 NNW 1023,0 26 0,0
21.01.2019 08:00:00 4,3 2,3 4,2 8,3 9,9 14 7 25 14 N 1022,5 24 0,0
21.01.2019 07:00:00 4,7 2,7 4,6 8,4 9,9 14 8 24 13 N 1022,2 22 0,0
21.01.2019 06:00:00 5,0 3,2 4,9 8,5 9,9 13 7 22 12 N 1021,7 19 0,0
21.01.2019 05:00:00 5,5 3,3 5,3 8,5 9,9 16 9 23 12 N 1021,3 34 0,0
21.01.2019 04:00:00 5,9 3,9 5,7 8,6 9,9 14 8 21 11 N 1020,9 43 0,0
21.01.2019 03:00:00 6,4 5,0 6,1 8,6 9,9 11 6 15 8 N 1020,5 18 0,0
21.01.2019 02:00:00 6,6 5,4 6,4 8,6 9,9 8 4 17 9 N 1020,3 18 0,0
21.01.2019 01:00:00 6,7 5,6 6,5 8,7 9,9 10 5 14 8 N 1020,0 19 0,0
21.01.2019 00:00:00 6,9 5,5 6,6 8,7 9,9 9 5 17 9 N 1019,7 26 0,0
20.01.2019 23:00:00 7,1 5,6 6,7 8,8 9,9 11 6 20 11 N 1019,2 34 0,0
20.01.2019 22:00:00 7,2 5,5 7,0 8,9 9,9 11 6 18 10 NNW 1018,6 33 0,0
20.01.2019 21:00:00 7,4 5,9 7,0 8,9 9,9 12 7 19 10 N 1018,1 30 0,0
20.01.2019 20:00:00 7,5 5,6 7,2 9,0 9,9 10 5 21 11 NNW 1017,4 58 0,0
20.01.2019 19:00:00 7,8 5,8 7,1 9,0 9,9 11 6 18 10 NW 1016,6 60 0,0
20.01.2019 18:00:00 8,4 7,0 7,6 9,0 9,9 8 4 14 8 NW 1016,0 60 0,0
20.01.2019 17:00:00 8,8 6,9 7,9 8,9 9,8 12 6 22 12 NNW 1015,5 19 0,0
20.01.2019 16:00:00 8,7 6,3 8,0 8,8 9,9 10 5 20 11 NW 1015,0 11 0,2
20.01.2019 15:00:00 9,7 6,4 9,5 8,6 9,9 10 6 18 10 N 1014,4 6 0,0
20.01.2019 14:00:00 9,9 5,9 11,1 8,3 9,9 7 4 14 7 N 1014,3 53 0,0
20.01.2019 13:00:00 9,2 6,6 11,0 8,1 9,9 6 4 26 14 N 1014,6 28 0,0
20.01.2019 12:00:00 8,8 6,2 9,9 7,9 9,9 6 4 15 8 N 1014,6 14 0,0
20.01.2019 11:00:00 7,3 6,9 6,2 7,8 9,9 3 1 9 5 N 1013,7 8 0,0
20.01.2019 10:00:00 5,7 5,4 5,1 7,8 9,9 0 0 4 2 N 1012,9 4,0 0,0
20.01.2019 09:00:00 5,2 4,9 4,6 7,8 9,8 3 1 10 5 NNE 1012,3 2,7 0,0
20.01.2019 08:00:00 5,0 4,7 4,6 7,9 9,8 6 4 11 6 NNE 1011,5 1,9 0,0
20.01.2019 07:00:00 5,1 4,8 4,1 7,9 9,8 0 0 12 6 N 1011,0 2,3 0,0
20.01.2019 06:00:00 5,2 4,9 4,8 7,9 9,8 2 1 8 4 E 1010,4 3,3 0,0
20.01.2019 05:00:00 5,1 4,8 4,3 8,0 9,8 5 3 7 4 SE 1010,5 1,9 0,0
20.01.2019 04:00:00 4,9 4,6 3,9 8,1 9,8 5 3 9 5 SE 1010,4 1,7 0,0
20.01.2019 03:00:00 4,9 4,6 3,7 8,2 9,8 3 2 10 5 SE 1010,2 0,3 0,0
20.01.2019 02:00:00 5,0 4,7 2,7 8,3 9,8 6 3 8 5 E 1010,0 0,2 0,0
20.01.2019 01:00:00 5,4 5,0 3,6 8,4 9,8 4 2 13 7 ENE 1010,1 0,9 0,0
20.01.2019 00:00:00 6,1 5,7 5,2 8,5 9,8 11 6 14 8 SE 1009,8 4,6 0,0
19.01.2019 23:00:00 6,5 6,1 5,6 8,6 9,8 9 5 18 10 ESE 1009,6 6 0,0
19.01.2019 22:00:00 6,9 6,3 6,0 8,7 9,8 12 6 15 8 ESE 1009,3 8 0,0
19.01.2019 21:00:00 7,5 6,9 5,4 8,8 9,8 10 5 12 6 ESE 1009,0 7 0,0
19.01.2019 20:00:00 7,8 7,4 5,2 9,0 9,8 8 4 10 6 E 1009,1 0,3 0,0
19.01.2019 19:00:00 8,3 7,4 5,4 9,0 9,8 4 2 6 3 SE 1009,1 6 0,0
19.01.2019 18:00:00 9,6 7,7 8,4 9,0 9,8 3 2 11 6 SSW 1009,1 41 0,0
19.01.2019 17:00:00 10,2 7,8 9,4 8,9 9,8 8 4 19 11 SW 1009,1 51 0,0
19.01.2019 16:00:00 10,3 7,9 9,0 8,8 9,8 10 5 32 18 SSW 1009,6 50 0,4
19.01.2019 15:00:00 12,0 7,3 13,3 8,5 9,8 14 8 26 14 SSW 1009,9 52 0,0
19.01.2019 14:00:00 12,2 7,7 11,5 8,2 9,8 14 7 21 12 SSW 1010,9 43 0,0
19.01.2019 13:00:00 10,1 7,9 9,2 7,9 9,8 5 3 21 11 SSW 1011,8 54 0,4
19.01.2019 12:00:00 9,0 7,8 7,8 7,7 9,8 8 4 14 8 S 1012,8 27 0,2
19.01.2019 11:00:00 8,4 7,8 6,7 7,7 9,8 13 7 22 12 SSW 1013,3 4,9 0,0
19.01.2019 10:00:00 6,9 6,6 5,7 7,7 9,8 13 7 18 10 S 1012,8 5 0,8
19.01.2019 09:00:00 6,5 6,2 5,8 7,7 9,8 14 8 20 11 S 1012,6 10 0,0
19.01.2019 08:00:00 6,8 6,5 6,3 7,7 9,8 12 7 20 11 S 1012,6 11 1,4
19.01.2019 07:00:00 7,0 6,6 5,8 7,7 9,8 14 8 24 13 SSW 1012,6 10 0,0
19.01.2019 06:00:00 6,7 6,1 5,4 7,8 9,8 14 7 23 12 SSW 1012,5 13 0,2
19.01.2019 05:00:00 6,2 5,5 5,2 7,8 9,8 16 8 24 13 S 1012,8 9 0,0
19.01.2019 04:00:00 5,8 5,1 4,9 7,8 9,8 12 6 21 11 S 1013,6 18 0,0
19.01.2019 03:00:00 6,4 5,5 5,8 7,8 9,8 12 6 23 13 S 1014,1 20 0,4
19.01.2019 02:00:00 6,6 5,2 5,8 7,9 9,8 13 7 23 12 S 1014,4 12 0,0
19.01.2019 01:00:00 6,6 5,2 5,9 7,9 9,8 16 8 23 12 S 1015,0 40 0,0
19.01.2019 00:00:00 6,6 5,7 6,0 7,9 9,8 12 6 19 10 S 1015,6 38 0,0
18.01.2019 23:00:00 6,8 5,9 6,2 7,9 9,8 11 6 18 10 S 1015,6 40 0,0
18.01.2019 22:00:00 7,0 6,3 6,5 7,9 9,8 12 7 18 10 S 1015,6 17 0,0
18.01.2019 21:00:00 7,2 6,5 6,7 7,9 9,8 9 5 14 8 SSE 1015,7 13 0,2
18.01.2019 20:00:00 7,4 6,3 6,6 7,9 9,8 10 5 20 11 S 1016,3 9 0,4
18.01.2019 19:00:00 7,8 6,3 7,4 7,9 9,8 13 7 19 10 SSW 1016,3 51 0,0
18.01.2019 18:00:00 8,4 6,4 7,9 7,8 9,8 10 6 16 9 SSW 1016,4 48 0,0
18.01.2019 17:00:00 8,9 6,9 9,1 7,7 9,8 10 5 15 8 SW 1016,6 40 0,0
18.01.2019 16:00:00 9,0 6,1 9,9 7,6 9,8 10 5 17 9 SSW 1016,7 50 0,0
18.01.2019 15:00:00 9,0 5,9 9,6 7,4 9,8 8 5 13 7 SW 1017,0 51 0,0
18.01.2019 14:00:00 8,2 6,0 8,4 7,2 9,8 9 5 14 7 SW 1017,5 37 0,0
18.01.2019 13:00:00 7,3 5,6 6,5 7,1 9,9 4 2 13 7 SW 1018,3 51 0,0
18.01.2019 12:00:00 6,0 4,8 5,4 7,0 9,8 9 5 13 7 SW 1018,8 49 0,0
18.01.2019 11:00:00 5,2 4,5 4,7 6,9 9,8 10 5 15 8 S 1019,0 38 0,0
18.01.2019 10:00:00 4,8 4,1 3,8 7,0 9,9 5 3 8 4 SE 1019,1 19 0,0
18.01.2019 09:00:00 4,4 3,7 3,4 7,0 9,9 3 1 16 9 WSW 1019,1 27 0,0
18.01.2019 08:00:00 4,4 3,7 3,7 7,0 9,9 11 6 21 11 S 1018,8 29 0,0
18.01.2019 07:00:00 4,4 3,7 3,8 7,0 9,9 3 2 9 5 SW 1019,1 15 0,2
18.01.2019 06:00:00 4,0 3,6 2,0 7,0 9,9 6 3 12 6 SW 1019,4 16 0,0
18.01.2019 05:00:00 3,5 2,9 2,4 7,1 9,9 5 3 8 4 SE 1019,7 11 0,0
18.01.2019 04:00:00 3,8 3,2 0,8 7,1 9,8 4 2 26 14 NNE 1020,1 20 0,0
18.01.2019 03:00:00 3,0 2,3 0,2 7,3 9,8 10 5 16 9 SSW 1020,3 5 0,0
18.01.2019 02:00:00 3,5 2,9 1,3 7,4 9,9 9 5 16 8 SW 1020,6 16 0,0
18.01.2019 01:00:00 3,0 2,9 -1,0 7,6 9,9 11 6 13 7 WSW 1021,0 12 0,0
18.01.2019 00:00:00 2,1 1,7 -0,6 7,8 9,9 8 4 10 6 SSW 1021,2 8 0,0
17.01.2019 23:00:00 2,6 2,0 -0,4 7,9 9,9 5 3 9 5 SW 1021,1 13 0,0
17.01.2019 22:00:00 3,6 2,7 0,2 8,1 9,8 6 3 9 5 SW 1020,7 15 0,0
17.01.2019 21:00:00 5,0 3,3 1,4 8,3 9,8 8 4 18 10 W 1020,6 20 0,0
17.01.2019 20:00:00 5,1 3,4 1,7 8,5 9,8 6 4 12 6 W 1020,6 40 0,0
17.01.2019 19:00:00 6,6 3,6 4,1 8,6 9,9 10 5 13 7 W 1019,9 60 0,0
17.01.2019 18:00:00 8,0 3,6 5,5 8,6 9,8 9 5 14 8 W 1019,4 60 0,0
17.01.2019 17:00:00 10,1 4,2 9,6 8,6 9,9 12 7 19 10 W 1018,9 58 0,0
17.01.2019 16:00:00 10,2 3,9 9,9 8,3 9,8 12 7 26 14 WNW 1018,5 60 0,0
17.01.2019 15:00:00 10,9 6,4 11,6 8,1 9,8 9 5 19 10 WNW 1018,6 55 0,0
17.01.2019 14:00:00 9,2 6,6 6,6 7,8 9,9 5 3 41 22 NNW 1018,8 19 3,1
17.01.2019 13:00:00 10,4 5,4 8,5 7,6 9,9 9 5 29 16 WNW 1019,2 56 0,2
17.01.2019 12:00:00 10,7 6,4 9,2 7,4 9,9 14 8 28 15 NW 1019,3 44 0,0
17.01.2019 11:00:00 9,2 6,8 7,7 7,3 9,9 10 5 16 9 W 1019,0 20 0,0
17.01.2019 10:00:00 6,7 5,3 2,1 7,4 9,9 6 3 15 8 SW 1018,2 35 0,0
17.01.2019 09:00:00 5,2 4,2 1,9 7,5 9,9 8 4 27 14 WSW 1017,7 1,2 0,0
17.01.2019 08:00:00 5,8 4,1 2,8 7,6 9,9 9 5 21 12 WSW 1017,0 49 0,0

tt = Température de l'air
td = dewpoint
tt 5cm = Température de l'air 5cm
tt -20cm = Température de l'air -20cm
tt -100cm = Température de l'air -100cm
ff = Vitesse du vent
fx = gusts
dd = Direction du vent
ppp = reduced air pressure
vv = visibility
rr = Quantités de précipitations

stations d'obs. à proximité